Regional Weather Roundup
Issued by NWS

Home | Current Version | Previous Version | Text Only | Print | Product List | Glossary Off
Versions: 1 2 3 4 5 6 7 8 9 10 11 12 13 14 15 16 17 18 19 20 21 22 23 24 25 26 27 28 29 30 31 32 33 34 35 36 37 38 39 40 41 42 43 44 45 46 47 48 49 50

000
ASUS43 KMPX 062201
RWRMN
WEATHER ROUNDUP FOR MINNESOTA
NATIONAL WEATHER SERVICE TWIN CITIES/CHANHASSEN MN
400 PM CST TUE DEC 06 2016


NOTE: "FAIR" INDICATES FEW OR NO CLOUDS BELOW 12,000 FEET WITH NO
SIGNIFICANT WEATHER AND/OR OBSTRUCTIONS TO VISIBILITY. N/A MEANS
CURRENT SKY AND/OR WEATHER CONDITIONS ARE NOT AVAILABLE.

MNZ060>063-068>070-062300-
   Twin Cities Metro

CITY           SKY/WX    TMP DP  RH WIND       PRES   REMARKS
CRYSTAL        FLURRIES  23  11  60 SW16G30   29.70R WCI  10
BLAINE         FLURRIES  25  16  68 SW16G30   29.68R WCI  12
EDEN PRAIRIE   CLOUDY    23  12  62 W21G35    29.71R WCI   8
$$
MNZ001>005-007-008-013>017-022>024-027-028-062300-
   Northwest Minnesota

CITY           SKY/WX    TMP DP  RH WIND       PRES   REMARKS
$$
MNZ006-009>011-018-025>026-062300-
   North Central Minnesota

CITY           SKY/WX    TMP DP  RH WIND       PRES   REMARKS
BAUDETTE       LGT SNOW  22  18  85 NE5       29.38R FOG     WCI  16
INTL FALLS     SNOW      21  17  84 SE8       29.39S VSB 1/2 WCI  11
WASKISH        LGT SNOW  23  19  86 E6        29.33R WCI  16
BIG FORK       LGT SNOW  21  19  93 S7        29.34F VSB 3/4 WCI  13
LONGVILLE      LGT SNOW  21  18  86 S13G22    29.38S WCI   9
GRAND RAPIDS   LGT SNOW  21  18  86 S15G21    29.40R FOG     WCI   8
$$
MNZ012-019>021-037-062300-
   Northeast Minnesota

CITY           SKY/WX    TMP DP  RH WIND       PRES   REMARKS
HIBBING        LGT SNOW  19  16  88 S9G17     29.40F FOG     WCI   8
GRAND MARAIS     N/A     31  24  75 SW28G33   29.53R WCI  17
$$
MNZ029>031-032-039>041-046>048-054>057-064-062300-
   West Central Minnesota

CITY           SKY/WX    TMP DP  RH WIND       PRES   REMARKS
WHEATON        LGT SNOW  19  16  86 W24G37    29.71R WCI   2
ALEXANDRIA     SNOW      18  15  88 W28G37    29.60R VSB 1/4 WCI  -1
ELBOW LAKE     SNOW      18  16  93 NW33G44   29.63R VSB 1/2 WCI  -3
WADENA         SNOW      18  16  93 W26G39    29.48R VSB 1/2 WCI  -1
WILLMAR        FLURRIES  21  16  79 W25G37    29.72R WCI   4
$$
MNZ033>034-036-042>043-049>051-058-059-062300-
   Central Minnesota

CITY           SKY/WX    TMP DP  RH WIND       PRES   REMARKS
BRAINERD       LGT SNOW  21  15  78 SW23G32   29.49S WCI   5
$$
MNZ037-044-045-052-053-062300-
   East Central Minnesota

CITY           SKY/WX    TMP DP  RH WIND       PRES   REMARKS
MORA           LGT SNOW  23  16  74 SW14G24   29.60R WCI  11
CAMBRIDGE      LGT SNOW  25  16  68 SW14G23   29.62R WCI  13
RUSH CITY      CLOUDY    23  16  74 SW16G25   29.62R WCI  10
CLOQUET        LGT SNOW  21  16  79 S13G23    29.48F WCI   9
$$
MNZ071>073-080-081-089-090-097-098-062300-
   Southwest Minnesota

CITY           SKY/WX    TMP DP  RH WIND       PRES   REMARKS
JACKSON        CLOUDY    23  12  63 W26G38    29.81R WCI   6
$$
MNZ065>067-074>077-082>085-091>093-062300-
   South Central Minnesota

CITY           SKY/WX    TMP DP  RH WIND       PRES   REMARKS
ST JAMES       CLOUDY    23  12  63 W29G38    29.82R WCI   6
GLENCOE        FLURRIES  23  16  75 W15G29    29.73R WCI  10
OWATONNA       CLOUDY    23  16  74 W25G31    29.77R WCI   7
ALBERT LEA     CLOUDY    27  18  69 W17G29    29.79R WCI  14
$$
MNZ078>079-086>088-094>096-062300-
   Southeast Minnesota

CITY           SKY/WX    TMP DP  RH WIND       PRES   REMARKS
RED WING       CLOUDY    25  14  63 W16G25    29.73F WCI  12
AUSTIN         CLOUDY    23  16  74 W16G28    29.79R WCI  10
$$
ABBREVIATIONS USED IN REMARKS
   TC - TEMPERATURES IN CELSIUS
  WCI - WIND CHILL INDEX
   HX - HEAT INDEX
  VSB - VISIBILITY
$$




USA.gov is the U.S. government's official web portal to all federal, state and local government web resources and services.